Date String (YYYY-MM-DD hh:mm:ss) UTC,Instrument flags,absolute air pressure of the measurement (hPa),sample flow rate (lpm),inlet stack bypass flow (lpm),air temperature of the measurement (°C),ambient temperature measured by the external sensor (°C),aerosol sample conditioner tube jacket temperature (°C),OPC LED temperature (°C),internal box temperature (°C),relative humidity of the measurement (%),span deviation,mass concentration of particles derived from Lorenz-Mie calculation of OPC scattering (μg/m³),mass concentration of particles derived from Lorenz-Mie calculation of OPC scattering (μg/m³),mass concentration of particles derived from Lorenz-Mie calculation of OPC scattering (μg/m³)
DateTimeUTC,F1_M11,P_M11,Q1_M11,Q2_M11,T1_M11,T2_M11,T3_M11,T4_M11,T5_M11,U1_M11,ZSPAN_M11,X2_M11,X0_M11,X1_M11
2023-09-08 02:00:00,SystemResetWarning,0833.2,4.99,000.00,027.7,026.4,000.0,036.0,029.5,16.1,0000.0,0003.57,0014.19,0001.67
2023-09-08 02:01:00,SystemResetWarning,0833.2,5.01,000.00,027.8,026.7,000.0,036.0,029.6,16.1,0000.0,0003.52,0014.53,0001.67
2023-09-08 02:02:00,SystemResetWarning,0833.2,5.01,000.00,027.9,026.9,000.0,036.0,029.7,16.3,0000.0,0003.53,0015.21,0001.67
2023-09-08 02:03:00,SystemResetWarning,0833.1,5.00,000.00,027.9,026.5,000.0,036.0,029.6,16.1,0000.0,0003.56,0016.55,0001.67
2023-09-08 02:04:00,SystemResetWarning,0833.1,4.99,000.00,027.8,024.7,000.0,036.0,029.1,15.9,0000.0,0003.55,0016.81,0001.66
2023-09-08 02:05:00,SystemResetWarning,0833.1,5.01,000.00,027.7,023.8,000.0,035.9,028.8,16.0,0000.0,0003.54,0017.20,0001.66
2023-09-08 02:06:00,SystemResetWarning,0833.1,5.01,000.00,027.6,023.9,000.0,035.9,028.8,16.1,0000.0,0003.59,0019.35,0001.66
2023-09-08 02:07:00,SystemResetWarning,0833.1,5.00,000.00,027.5,024.3,000.0,035.9,028.9,16.3,0000.0,0003.62,0020.85,0001.66
2023-09-08 02:08:00,SystemResetWarning,0833.2,5.00,000.00,027.5,024.8,000.0,035.9,029.0,16.5,0000.0,0003.60,0021.33,0001.66
2023-09-08 02:09:00,SystemResetWarning,0833.2,5.00,000.00,027.6,025.2,000.0,035.9,029.1,16.5,0000.0,0003.61,0021.76,0001.67
2023-09-08 02:10:00,SystemResetWarning,0833.2,4.99,000.00,027.6,025.6,000.0,035.9,029.2,16.1,0000.0,0003.58,0022.27,0001.66
2023-09-08 02:11:00,SystemResetWarning,0833.2,5.00,000.00,027.6,026.0,000.0,035.9,029.3,16.2,0000.0,0003.57,0022.34,0001.66
2023-09-08 02:12:00,SystemResetWarning,0833.2,5.00,000.00,027.7,026.3,000.0,035.9,029.4,16.1,0000.0,0003.59,0022.64,0001.65
2023-09-08 02:13:00,SystemResetWarning,0833.2,5.00,000.00,027.7,026.5,000.0,036.0,029.5,15.9,0000.0,0003.57,0022.44,0001.64
2023-09-08 02:14:00,SystemResetWarning,0833.3,4.99,000.00,027.8,026.7,000.0,036.0,029.6,16.1,0000.0,0003.54,0021.38,0001.64
2023-09-08 02:15:00,SystemResetWarning,0833.3,4.99,000.00,027.9,026.9,000.0,036.0,029.6,16.3,0000.0,0003.51,0020.88,0001.63
2023-09-08 02:16:00,SystemResetWarning,0833.2,5.00,000.00,027.9,026.9,000.0,036.1,029.7,16.5,0000.0,0003.50,0021.07,0001.63
2023-09-08 02:17:00,SystemResetWarning,0833.2,4.98,000.00,027.9,025.4,000.0,036.0,029.2,16.7,0000.0,0003.45,0020.09,0001.61
2023-09-08 02:18:00,SystemResetWarning,0833.2,5.01,000.00,027.7,023.9,000.0,036.0,028.8,16.7,0000.0,0003.40,0017.87,0001.61
2023-09-08 02:19:00,SystemResetWarning,0833.2,5.01,000.00,027.6,023.8,000.0,035.9,028.8,16.8,0000.0,0003.35,0018.05,0001.61
2023-09-08 02:20:00,SystemResetWarning,0833.3,5.01,000.00,027.5,024.1,000.0,035.9,028.8,16.9,0000.0,0003.33,0018.84,0001.59
2023-09-08 02:21:00,SystemResetWarning,0833.3,5.00,000.00,027.5,024.6,000.0,035.9,028.9,16.9,0000.0,0003.32,0019.03,0001.58
2023-09-08 02:22:00,SystemResetWarning,0833.3,5.00,000.00,027.5,025.0,000.0,035.9,029.0,16.6,0000.0,0003.27,0017.63,0001.56
2023-09-08 02:23:00,SystemResetWarning,0833.3,5.00,000.00,027.6,025.4,000.0,035.9,029.2,16.9,0000.0,0003.23,0017.88,0001.54
2023-09-08 02:24:00,SystemResetWarning,0833.4,4.99,000.00,027.6,025.8,000.0,035.9,029.3,16.8,0000.0,0003.18,0017.35,0001.52
2023-09-08 02:25:00,SystemResetWarning,0833.4,5.00,000.00,027.7,026.1,000.0,035.9,029.3,16.6,0000.0,0003.18,0016.94,0001.50
2023-09-08 02:26:00,SystemResetWarning,0833.4,5.00,000.00,027.7,026.4,000.0,036.0,029.4,16.3,0000.0,0003.22,0017.90,0001.51
2023-09-08 02:27:00,SystemResetWarning,0833.4,5.00,000.00,027.8,026.6,000.0,036.0,029.5,16.3,0000.0,0003.24,0017.74,0001.52
2023-09-08 02:28:00,SystemResetWarning,0833.4,5.00,000.00,027.8,026.8,000.0,036.0,029.6,16.3,0000.0,0003.29,0017.44,0001.52
2023-09-08 02:29:00,SystemResetWarning,0833.4,5.00,000.00,027.9,027.0,000.0,036.1,029.7,16.3,0000.0,0003.36,0017.37,0001.51
2023-09-08 02:30:00,SystemResetWarning,0833.5,4.98,000.00,027.9,027.1,000.0,036.1,029.7,16.2,0000.0,0003.37,0016.09,0001.52
2023-09-08 02:31:00,SystemResetWarning,0833.5,4.99,000.00,028.0,026.1,000.0,036.1,029.5,16.4,0000.0,0003.39,0014.78,0001.53
2023-09-08 02:32:00,SystemResetWarning,0833.5,5.01,000.00,027.9,024.8,000.0,036.0,029.2,16.4,0000.0,0003.41,0013.12,0001.54
2023-09-08 02:33:00,SystemResetWarning,0833.5,5.01,000.00,027.8,024.7,000.0,036.0,029.2,16.3,0000.0,0003.48,0013.21,0001.57
2023-09-08 02:34:00,SystemResetWarning,0833.5,5.00,000.00,027.7,024.9,000.0,036.0,029.1,16.3,0000.0,0003.45,0012.29,0001.59
2023-09-08 02:35:00,SystemResetWarning,0833.6,4.98,000.00,027.7,025.3,000.0,036.0,029.2,16.3,0000.0,0003.50,0011.91,0001.61
2023-09-08 02:36:00,SystemResetWarning,0833.6,5.01,000.00,027.8,025.6,000.0,036.0,029.3,16.3,0000.0,0003.48,0012.05,0001.62
2023-09-08 02:37:00,SystemResetWarning,0833.7,5.01,000.00,027.8,026.0,000.0,036.1,029.4,16.3,0000.0,0003.47,0011.64,0001.62
2023-09-08 02:38:00,SystemResetWarning,0833.7,5.00,000.00,027.8,026.3,000.0,036.1,029.5,16.2,0000.0,0003.45,0011.27,0001.62
2023-09-08 02:39:00,SystemResetWarning,0833.7,5.00,000.00,027.9,026.5,000.0,036.1,029.6,16.2,0000.0,0003.38,0010.95,0001.61
2023-09-08 02:40:00,SystemResetWarning,0833.7,5.00,000.00,027.9,026.7,000.0,036.1,029.7,16.2,0000.0,0003.30,0010.81,0001.62
2023-09-08 02:41:00,SystemResetWarning,0833.7,5.00,000.00,028.0,026.9,000.0,036.2,029.7,15.9,0000.0,0003.30,0010.47,0001.62
2023-09-08 02:42:00,SystemResetWarning,0833.7,4.99,000.00,028.0,026.4,000.0,036.2,029.6,15.9,0000.0,0003.29,0011.85,0001.62
2023-09-08 02:43:00,SystemResetWarning,0833.7,5.00,000.00,027.9,024.9,000.0,036.1,029.2,16.0,0000.0,0003.25,0012.74,0001.60
2023-09-08 02:44:00,SystemResetWarning,0833.7,5.02,000.00,027.8,024.6,000.0,036.1,029.2,16.2,0000.0,0003.22,0013.59,0001.59
2023-09-08 02:45:00,SystemResetWarning,0833.7,5.00,000.00,027.8,024.8,000.0,036.1,029.1,16.1,0000.0,0003.22,0013.09,0001.59
2023-09-08 02:46:00,SystemResetWarning,0833.7,5.00,000.00,027.8,025.2,000.0,036.1,029.2,16.1,0000.0,0003.21,0013.00,0001.59
2023-09-08 02:47:00,SystemResetWarning,0833.7,4.99,000.00,027.8,025.6,000.0,036.1,029.3,16.2,0000.0,0003.24,0013.81,0001.60
2023-09-08 02:48:00,SystemResetWarning,0833.7,5.00,000.00,027.8,025.9,000.0,036.1,029.4,16.3,0000.0,0003.24,0014.13,0001.58
2023-09-08 02:49:00,SystemResetWarning,0833.7,5.00,000.00,027.8,026.2,000.0,036.1,029.5,16.1,0000.0,0003.28,0014.63,0001.58
2023-09-08 02:50:00,SystemResetWarning,0833.7,5.01,000.00,027.9,026.5,000.0,036.2,029.6,15.9,0000.0,0003.32,0014.46,0001.58
2023-09-08 02:51:00,SystemResetWarning,0833.8,4.99,000.00,027.9,026.7,000.0,036.2,029.7,15.9,0000.0,0003.36,0014.39,0001.58
2023-09-08 02:52:00,SystemResetWarning,0833.8,5.00,000.00,028.0,026.9,000.0,036.2,029.7,16.0,0000.0,0003.36,0014.20,0001.59
2023-09-08 02:53:00,SystemResetWarning,0833.8,4.99,000.00,028.0,027.0,000.0,036.2,029.8,16.0,0000.0,0003.35,0013.93,0001.59
2023-09-08 02:54:00,SystemResetWarning,0833.8,4.98,000.00,028.0,026.0,000.0,036.2,029.6,16.0,0000.0,0003.37,0013.43,0001.58
2023-09-08 02:55:00,SystemResetWarning,0833.8,5.01,000.00,028.0,024.8,000.0,036.2,029.3,16.2,0000.0,0003.36,0012.35,0001.58
2023-09-08 02:56:00,SystemResetWarning,0833.8,5.01,000.00,027.9,024.7,000.0,036.1,029.2,16.3,0000.0,0003.40,0013.23,0001.57
2023-09-08 02:57:00,SystemResetWarning,0833.8,4.99,000.00,027.8,025.0,000.0,036.1,029.2,16.3,0000.0,0003.37,0014.17,0001.58
2023-09-08 02:58:00,SystemResetWarning,0833.8,5.00,000.00,027.8,025.3,000.0,036.2,029.3,16.3,0000.0,0003.36,0014.23,0001.58
2023-09-08 02:59:00,SystemResetWarning,0833.9,5.01,000.00,027.8,025.7,000.0,036.2,029.4,16.2,0000.0,0003.37,0013.51,0001.60
